Time,TemperatureF,DewpointF,PressureIn,WindDirection,WindDirectionDegrees,WindSpeedMPH,WindSpeedGustMPH,Humidity,HourlyPrecipIn,Conditions,Clouds,dailyrainin,SoftwareType,DateUTC
2013-08-03 00:01:00,63.5,62.0,29.83,SW,217,0.0,-999.0,95,-99.99,,,0.62,weatherlink.com 1.10,2013-08-03 04:01:00,
2013-08-03 00:16:00,63.5,62.0,29.82,SW,217,0.0,-999.0,95,-99.99,,,0.69,weatherlink.com 1.10,2013-08-03 04:16:00,
2013-08-03 00:31:00,63.5,62.0,29.82,SW,217,0.0,-999.0,96,-99.99,,,0.75,weatherlink.com 1.10,2013-08-03 04:31:00,
2013-08-03 00:46:00,63.2,62.0,29.83,SW,217,0.0,-999.0,96,-99.99,,,0.87,weatherlink.com 1.10,2013-08-03 04:46:00,
2013-08-03 01:01:00,63.0,62.0,29.82,SW,217,0.0,-999.0,96,-99.99,,,0.88,weatherlink.com 1.10,2013-08-03 05:01:00,
2013-08-03 01:16:00,63.0,62.0,29.81,SW,217,1.0,-999.0,96,-99.99,,,0.88,weatherlink.com 1.10,2013-08-03 05:16:00,
2013-08-03 01:31:00,63.1,62.0,29.82,SW,217,1.0,-999.0,96,-99.99,,,0.88,weatherlink.com 1.10,2013-08-03 05:31:00,
2013-08-03 01:46:00,63.2,62.0,29.82,SW,217,0.0,-999.0,97,-99.99,,,0.88,weatherlink.com 1.10,2013-08-03 05:46:00,
2013-08-03 02:01:00,63.2,62.0,29.82,SW,217,0.0,-999.0,96,-99.99,,,0.88,weatherlink.com 1.10,2013-08-03 06:01:00,
2013-08-03 02:16:00,63.0,62.0,29.82,SW,217,0.0,-999.0,96,-99.99,,,0.88,weatherlink.com 1.10,2013-08-03 06:16:00,
2013-08-03 02:31:00,62.8,62.0,29.82,SW,216,0.0,-999.0,96,-99.99,,,0.88,weatherlink.com 1.10,2013-08-03 06:31:00,
2013-08-03 02:46:00,62.8,62.0,29.82,SW,217,0.0,-999.0,96,-99.99,,,0.88,weatherlink.com 1.10,2013-08-03 06:46:00,
2013-08-03 03:01:00,62.9,62.0,29.83,SW,217,0.0,-999.0,96,-99.99,,,0.88,weatherlink.com 1.10,2013-08-03 07:01:00,
2013-08-03 03:16:00,62.9,62.0,29.83,SW,216,0.0,-999.0,96,-99.99,,,0.88,weatherlink.com 1.10,2013-08-03 07:16:00,
2013-08-03 03:31:00,63.1,62.0,29.83,SW,216,1.0,-999.0,96,-99.99,,,0.88,weatherlink.com 1.10,2013-08-03 07:31:00,
2013-08-03 03:46:00,63.2,62.0,29.83,SSW,213,2.0,-999.0,97,-99.99,,,0.88,weatherlink.com 1.10,2013-08-03 07:46:00,
2013-08-03 04:01:00,63.1,62.0,29.83,SSW,213,3.0,-999.0,96,-99.99,,,0.88,weatherlink.com 1.10,2013-08-03 08:01:00,
2013-08-03 04:16:00,62.9,62.0,29.83,SSW,213,4.0,-999.0,96,-99.99,,,0.00,weatherlink.com 1.10,2013-08-03 08:16:00,
2013-08-03 04:31:00,62.7,62.0,29.83,SSW,213,0.0,-999.0,96,-99.99,,,0.00,weatherlink.com 1.10,2013-08-03 08:31:00,
2013-08-03 04:46:00,62.5,61.0,29.84,SSW,213,0.0,-999.0,96,-99.99,,,0.00,weatherlink.com 1.10,2013-08-03 08:46:00,
2013-08-03 05:16:00,62.0,61.0,29.85,SSW,213,0.0,-999.0,96,-99.99,,,0.00,weatherlink.com 1.10,2013-08-03 09:16:00,
2013-08-03 05:32:00,61.8,61.0,29.86,SSW,213,2.0,-999.0,96,-99.99,,,0.00,weatherlink.com 1.10,2013-08-03 09:32:00,
2013-08-03 05:46:00,61.7,61.0,29.85,SW,214,1.0,-999.0,96,-99.99,,,0.00,weatherlink.com 1.10,2013-08-03 09:46:00,
2013-08-03 06:01:00,61.6,61.0,29.86,SW,214,1.0,-999.0,96,-99.99,,,0.00,weatherlink.com 1.10,2013-08-03 10:01:00,
2013-08-03 06:17:00,61.5,61.0,29.87,SW,214,0.0,-999.0,97,-99.99,,,0.00,weatherlink.com 1.10,2013-08-03 10:17:00,
2013-08-03 06:32:00,61.3,61.0,29.88,SW,214,1.0,-999.0,97,-99.99,,,0.00,weatherlink.com 1.10,2013-08-03 10:32:00,
2013-08-03 06:47:00,61.4,61.0,29.88,SW,214,1.0,-999.0,97,-99.99,,,0.00,weatherlink.com 1.10,2013-08-03 10:47:00,
2013-08-03 07:02:00,61.5,61.0,29.88,SW,214,0.0,-999.0,97,-99.99,,,0.00,weatherlink.com 1.10,2013-08-03 11:02:00,
2013-08-03 07:17:00,61.8,61.0,29.89,SW,216,2.0,-999.0,97,-99.99,,,0.00,weatherlink.com 1.10,2013-08-03 11:17:00,
2013-08-03 07:32:00,62.0,61.0,29.89,SW,216,0.0,-999.0,97,-99.99,,,0.00,weatherlink.com 1.10,2013-08-03 11:32:00,
2013-08-03 07:47:00,62.3,61.0,29.89,SW,217,2.0,-999.0,96,-99.99,,,0.00,weatherlink.com 1.10,2013-08-03 11:47:00,
2013-08-03 08:02:00,62.8,62.0,29.90,SW,217,0.0,-999.0,96,-99.99,,,0.00,weatherlink.com 1.10,2013-08-03 12:02:00,
2013-08-03 08:17:00,63.2,62.0,29.90,SW,216,2.0,-999.0,95,-99.99,,,0.00,weatherlink.com 1.10,2013-08-03 12:17:00,
2013-08-03 08:32:00,63.9,62.0,29.90,SW,216,1.0,-999.0,94,-99.99,,,0.00,weatherlink.com 1.10,2013-08-03 12:32:00,
2013-08-03 08:47:00,64.5,62.0,29.90,SW,219,1.0,-999.0,92,-99.99,,,0.00,weatherlink.com 1.10,2013-08-03 12:47:00,
2013-08-03 09:02:00,65.3,62.0,29.90,SW,226,4.0,-999.0,90,-99.99,,,0.00,weatherlink.com 1.10,2013-08-03 13:02:00,
2013-08-03 09:17:00,66.4,63.0,29.90,SW,226,1.0,-999.0,87,-99.99,,,0.00,weatherlink.com 1.10,2013-08-03 13:17:00,
2013-08-03 09:32:00,67.0,62.0,29.90,SW,230,8.0,-999.0,83,-99.99,,,0.00,weatherlink.com 1.10,2013-08-03 13:32:00,
2013-08-03 09:47:00,67.4,61.0,29.90,SW,229,0.0,-999.0,81,-99.99,,,0.00,weatherlink.com 1.10,2013-08-03 13:47:00,
2013-08-03 10:02:00,68.1,61.0,29.90,SW,214,2.0,-999.0,79,-99.99,,,0.00,weatherlink.com 1.10,2013-08-03 14:02:00,
2013-08-03 10:17:00,68.3,61.0,29.90,SW,228,0.0,-999.0,77,-99.99,,,0.00,weatherlink.com 1.10,2013-08-03 14:17:00,
2013-08-03 10:32:00,68.8,61.0,29.90,South,188,1.0,-999.0,75,-99.99,,,0.00,weatherlink.com 1.10,2013-08-03 14:32:00,
2013-08-03 10:47:00,70.1,60.0,29.90,SW,227,4.0,-999.0,70,-99.99,,,0.00,weatherlink.com 1.10,2013-08-03 14:47:00,
2013-08-03 11:02:00,70.9,61.0,29.90,SW,216,2.0,-999.0,70,-99.99,,,0.00,weatherlink.com 1.10,2013-08-03 15:02:00,
2013-08-03 11:17:00,70.6,60.0,29.90,SSE,161,1.0,-999.0,68,-99.99,,,0.00,weatherlink.com 1.10,2013-08-03 15:17:00,
2013-08-03 11:32:00,71.9,60.0,29.90,SSW,200,0.0,-999.0,66,-99.99,,,0.00,weatherlink.com 1.10,2013-08-03 15:32:00,
2013-08-03 11:47:00,71.6,60.0,29.90,SW,225,0.0,-999.0,66,-99.99,,,0.00,weatherlink.com 1.10,2013-08-03 15:47:00,
2013-08-03 12:02:00,72.2,59.0,29.90,WSW,251,1.0,-999.0,64,-99.99,,,0.00,weatherlink.com 1.10,2013-08-03 16:02:00,
2013-08-03 12:17:00,72.5,59.0,29.90,WSW,250,7.0,-999.0,63,-99.99,,,0.00,weatherlink.com 1.10,2013-08-03 16:17:00,
2013-08-03 12:32:00,72.9,59.0,29.90,SSW,199,4.0,-999.0,62,-99.99,,,0.00,weatherlink.com 1.10,2013-08-03 16:32:00,
2013-08-03 12:48:00,73.6,57.0,29.90,WSW,245,4.0,-999.0,57,-99.99,,,0.00,weatherlink.com 1.10,2013-08-03 16:48:00,
2013-08-03 13:03:00,73.1,58.0,29.89,WSW,250,5.0,-999.0,60,-99.99,,,0.00,weatherlink.com 1.10,2013-08-03 17:03:00,
2013-08-03 13:17:00,74.5,58.0,29.89,South,191,1.0,-999.0,56,-99.99,,,0.00,weatherlink.com 1.10,2013-08-03 17:17:00,
2013-08-03 13:33:00,75.3,57.0,29.89,West,277,6.0,-999.0,54,-99.99,,,0.00,weatherlink.com 1.10,2013-08-03 17:33:00,
2013-08-03 13:48:00,74.9,58.0,29.89,SW,229,0.0,-999.0,55,-99.99,,,0.00,weatherlink.com 1.10,2013-08-03 17:48:00,
2013-08-03 14:03:00,75.5,58.0,29.89,WSW,256,5.0,-999.0,54,-99.99,,,0.00,weatherlink.com 1.10,2013-08-03 18:03:00,
2013-08-03 14:17:00,73.9,56.0,29.90,South,171,5.0,-999.0,54,-99.99,,,0.00,weatherlink.com 1.10,2013-08-03 18:17:00,
2013-08-03 14:33:00,75.0,55.0,29.90,SSW,213,4.0,-999.0,50,-99.99,,,0.00,weatherlink.com 1.10,2013-08-03 18:33:00,
2013-08-03 14:48:00,75.4,56.0,29.90,WSW,240,0.0,-999.0,51,-99.99,,,0.00,weatherlink.com 1.10,2013-08-03 18:48:00,
2013-08-03 15:03:00,74.8,54.0,29.89,SSW,211,5.0,-999.0,48,-99.99,,,0.00,weatherlink.com 1.10,2013-08-03 19:03:00,
2013-08-03 15:18:00,75.3,55.0,29.89,SW,219,6.0,-999.0,50,-99.99,,,0.00,weatherlink.com 1.10,2013-08-03 19:18:00,
2013-08-03 15:33:00,75.1,55.0,29.89,SW,234,3.0,-999.0,50,-99.99,,,0.00,weatherlink.com 1.10,2013-08-03 19:33:00,
2013-08-03 15:48:00,74.4,54.0,29.89,West,278,3.0,-999.0,49,-99.99,,,0.00,weatherlink.com 1.10,2013-08-03 19:48:00,
2013-08-03 16:03:00,74.5,53.0,29.89,West,280,6.0,-999.0,48,-99.99,,,0.00,weatherlink.com 1.10,2013-08-03 20:03:00,
2013-08-03 16:18:00,74.4,54.0,29.89,WSW,238,7.0,-999.0,49,-99.99,,,0.00,weatherlink.com 1.10,2013-08-03 20:18:00,
2013-08-03 16:33:00,74.9,54.0,29.89,West,267,10.0,-999.0,49,-99.99,,,0.00,weatherlink.com 1.10,2013-08-03 20:33:00,
2013-08-03 16:48:00,75.7,55.0,29.89,West,265,5.0,-999.0,49,-99.99,,,0.00,weatherlink.com 1.10,2013-08-03 20:48:00,
2013-08-03 17:03:00,76.7,54.0,29.89,SSW,210,1.0,-999.0,46,-99.99,,,0.00,weatherlink.com 1.10,2013-08-03 21:03:00,
2013-08-03 17:18:00,75.5,54.0,29.89,SW,232,0.0,-999.0,48,-99.99,,,0.00,weatherlink.com 1.10,2013-08-03 21:18:00,
2013-08-03 17:33:00,75.3,56.0,29.89,SW,219,3.0,-999.0,51,-99.99,,,0.00,weatherlink.com 1.10,2013-08-03 21:33:00,
2013-08-03 17:48:00,76.1,55.0,29.89,SSW,205,2.0,-999.0,49,-99.99,,,0.00,weatherlink.com 1.10,2013-08-03 21:48:00,
2013-08-03 18:03:00,76.2,55.0,29.89,WSW,246,6.0,-999.0,48,-99.99,,,0.00,weatherlink.com 1.10,2013-08-03 22:03:00,
2013-08-03 18:18:00,75.6,54.0,29.89,WSW,250,6.0,-999.0,48,-99.99,,,0.00,weatherlink.com 1.10,2013-08-03 22:18:00,
2013-08-03 18:33:00,75.3,54.0,29.89,WSW,249,7.0,-999.0,47,-99.99,,,0.00,weatherlink.com 1.10,2013-08-03 22:33:00,
2013-08-03 18:48:00,75.5,54.0,29.89,WSW,252,1.0,-999.0,48,-99.99,,,0.00,weatherlink.com 1.10,2013-08-03 22:48:00,
2013-08-03 19:03:00,74.4,54.0,29.89,SSW,202,1.0,-999.0,49,-99.99,,,0.00,weatherlink.com 1.10,2013-08-03 23:03:00,
2013-08-03 19:18:00,74.5,54.0,29.89,SW,223,6.0,-999.0,49,-99.99,,,0.00,weatherlink.com 1.10,2013-08-03 23:18:00,
2013-08-03 19:33:00,73.2,54.0,29.89,SW,229,0.0,-999.0,52,-99.99,,,0.00,weatherlink.com 1.10,2013-08-03 23:33:00,
2013-08-03 19:48:00,72.6,54.0,29.89,SSW,208,4.0,-999.0,53,-99.99,,,0.00,weatherlink.com 1.10,2013-08-03 23:48:00,
2013-08-03 20:03:00,72.3,55.0,29.90,SSW,207,0.0,-999.0,54,-99.99,,,0.00,weatherlink.com 1.10,2013-08-04 00:03:00,
2013-08-03 20:18:00,72.0,55.0,29.90,SW,221,0.0,-999.0,55,-99.99,,,0.00,weatherlink.com 1.10,2013-08-04 00:18:00,
2013-08-03 20:33:00,71.5,56.0,29.90,SW,221,1.0,-999.0,59,-99.99,,,0.00,weatherlink.com 1.10,2013-08-04 00:33:00,
2013-08-03 20:48:00,71.0,59.0,29.90,SSW,213,1.0,-999.0,67,-99.99,,,0.00,weatherlink.com 1.10,2013-08-04 00:48:00,
2013-08-03 21:03:00,70.7,60.0,29.90,SW,227,0.0,-999.0,68,-99.99,,,0.00,weatherlink.com 1.10,2013-08-04 01:03:00,
2013-08-03 21:18:00,70.4,60.0,29.90,SSW,203,0.0,-999.0,69,-99.99,,,0.00,weatherlink.com 1.10,2013-08-04 01:18:00,
2013-08-03 21:33:00,70.1,60.0,29.90,SW,228,1.0,-999.0,71,-99.99,,,0.00,weatherlink.com 1.10,2013-08-04 01:33:00,
2013-08-03 21:48:00,69.5,61.0,29.91,SW,225,0.0,-999.0,73,-99.99,,,0.00,weatherlink.com 1.10,2013-08-04 01:48:00,
2013-08-03 22:03:00,68.8,60.0,29.91,SW,225,0.0,-999.0,74,-99.99,,,0.00,weatherlink.com 1.10,2013-08-04 02:03:00,
2013-08-03 22:18:00,68.2,60.0,29.91,SW,217,0.0,-999.0,75,-99.99,,,0.00,weatherlink.com 1.10,2013-08-04 02:18:00,
2013-08-03 22:33:00,67.7,60.0,29.91,SW,217,0.0,-999.0,76,-99.99,,,0.00,weatherlink.com 1.10,2013-08-04 02:33:00,
2013-08-03 22:48:00,67.3,60.0,29.91,SW,217,1.0,-999.0,76,-99.99,,,0.00,weatherlink.com 1.10,2013-08-04 02:48:00,
2013-08-03 23:02:00,67.1,60.0,29.91,SW,217,1.0,-999.0,77,-99.99,,,0.00,weatherlink.com 1.10,2013-08-04 03:02:00,
2013-08-03 23:18:00,67.5,60.0,29.91,SW,219,0.0,-999.0,76,-99.99,,,0.00,weatherlink.com 1.10,2013-08-04 03:18:00,
2013-08-03 23:33:00,67.4,60.0,29.91,SW,236,0.0,-999.0,76,-99.99,,,0.00,weatherlink.com 1.10,2013-08-04 03:33:00,
2013-08-03 23:48:00,67.2,59.0,29.91,WSW,252,0.0,-999.0,75,-99.99,,,0.00,weatherlink.com 1.10,2013-08-04 03:48:00,